#timestamp,LO_Frequency,Hit,StdDev 
1583366415.2,286047037.0,N
1583366435.0,286047042.7,N
1583366435.9,286047042.7,N
1583366455.8,286047044.3,N
1583366475.6,286047045.5,N
1583366495.4,286047044.8,N
1583366515.3,286047042.6,N
1583366535.1,286047043.8,N
1583366555.8,286047047.4,N
1583366575.7,286047051.1,N
1583366595.5,286047050.0,N
1583366615.4,286047046.3,N
1583366635.2,286047046.6,N
1583366685.1,286047043.9,E
1583366695.9,286047023.4,N
1583366715.7,286046999.8,P
1583366735.6,286047001.6,N
1583366755.4,286047000.0,N
1583366775.2,286046999.6,N
1583366795.1,286046997.5,N
1583366796.0,286046997.5,N
1583366815.8,286047001.7,N
1583366835.7,286047009.5,N
1583366855.5,286047011.3,N
1583366875.3,286047013.7,N
1583366895.2,286047010.1,N
1583366915.9,286047006.4,N
1583366935.7,286047007.1,N
1583366955.6,286047001.7,N
1583366975.4,286046995.1,N
1583366995.2,286046998.8,N
1583367015.1,286047007.5,N
1583367016.0,286047007.5,N
1583367035.8,286047008.8,N
1583367055.7,286047007.8,N
1583367075.5,286047011.2,N
1583367095.3,286047018.3,N
1583367115.2,286047020.4,N
1583367135.0,286047016.2,N
1583367135.9,286047016.2,N
1583367155.8,286047014.2,N
1583367175.6,286047020.4,N
1583367195.4,286047015.0,N
1583367215.3,286047010.9,N
1583367235.1,286047015.4,N
1583367255.8,286047011.2,N
1583367275.7,286047011.7,N
1583367295.5,286047017.1,N
1583367315.3,286047018.5,N
1583367335.2,286047023.1,Y
1583367355.0,286047011.3,P
1583367355.9,286047011.3,P
1583367375.8,286047012.7,P
1583367395.6,286047014.6,Y
1583367415.4,286047003.6,P
1583367435.3,286047004.4,N
1583367455.1,286047004.1,N
1583367475.9,286047000.7,N
1583367495.7,286046998.2,N
1583367515.5,286047002.7,N
1583367535.4,286047005.8,N
1583367555.2,286047005.2,N
1583367575.0,286047005.6,N
1583367575.9,286047005.6,N
1583367595.8,286046999.2,N
1583367615.6,286046996.0,N
1583367635.5,286047000.9,N
1583367655.3,286047001.9,N
1583367675.1,286047003.2,N
1583367695.9,286047006.8,N
1583367715.7,286047010.7,Y
1583367735.6,286047005.8,P
1583367755.4,286046999.5,N
1583367775.2,286046993.6,N
1583367795.1,286046992.1,N
1583367796.0,286046992.1,N
1583367815.8,286046987.7,N
1583367835.7,286046987.1,N
1583367855.5,286046984.9,N
1583367875.3,286046981.0,N
1583367895.2,286046980.4,N
1583367915.0,286046976.2,N
1583367915.9,286046976.2,N
1583367935.8,286046967.7,Y
1583367955.6,286046981.4,P
1583367975.4,286046988.0,P
1583367995.3,286046994.8,N
1583368015.1,286046992.6,N
1583368035.8,286046989.2,N
1583368055.7,286046992.3,N
1583368075.5,286046986.0,Y
1583368095.4,286046991.4,P
1583368115.2,286046994.2,P
1583368135.0,286046988.8,P
1583368135.9,286046988.8,Y
1583368155.8,286046996.5,P
1583368175.6,286046996.2,N
1583368195.5,286046986.9,P
1583368215.3,286046985.7,Y
1583368235.1,286047000.5,P
1583368255.9,286046992.1,N
1583368275.7,286046989.2,N
1583368295.6,286046990.2,N
1583368315.4,286046994.7,N
1583368335.3,286047002.4,N
1583368355.1,286046996.9,N
1583368356.0,286046996.9,N
1583368375.8,286046995.1,N
1583368395.7,286046990.4,N
1583368415.5,286047000.9,N
1583368435.3,286047001.2,N
1583368455.2,286047004.1,N
1583368475.0,286047003.7,N
1583368475.9,286047003.7,N
1583368495.8,286046998.6,N
1583368515.6,286046994.0,N
1583368535.4,286046999.5,N
1583368555.3,286047002.8,N
1583368575.1,286046987.8,N
1583368595.8,286046989.8,N
1583368615.7,286046988.4,N
1583368635.5,286046986.6,N
1583368655.4,286046982.1,Y
1583368675.2,286046977.8,P
1583368695.0,286046983.7,N
1583368695.9,286046983.7,N
1583368715.8,286046986.9,N
1583368735.6,286046983.8,N
1583368755.5,286046983.4,Y
1583368775.3,286046994.7,P
1583368795.1,286046998.7,N
1583368815.9,286046999.5,N
1583368835.7,286046994.6,N
1583368855.5,286046999.0,N
1583368875.4,286046998.2,N
1583368895.2,286046988.9,N
1583368915.1,286046992.7,N
1583368916.0,286046992.7,N
1583368935.8,286046992.0,N
1583368955.6,286046993.8,N
1583368975.5,286046996.2,N
1583368995.3,286046996.8,N
1583369015.1,286046999.5,N
1583369035.9,286047002.9,N
1583369055.7,286047005.1,N
1583369075.6,286046999.3,N
1583369095.4,286047000.3,N
1583369115.2,286047002.4,N
1583369135.1,286047000.4,N
1583369136.0,286047000.4,N
1583369155.8,286046999.6,N
1583369175.6,286046991.0,N
1583369195.5,286046990.3,N
1583369215.3,286046999.5,N
1583369235.2,286047003.8,N
1583369255.9,286047006.7,N
1583369275.7,286047010.3,N
1583369295.6,286047006.9,N
1583369315.4,286047003.0,N
1583369335.2,286047007.5,N
1583369355.1,286047010.6,N
1583369356.0,286047010.6,N
1583369375.8,286047003.4,N
1583369395.7,286047004.8,N
1583369415.5,286047006.0,N
1583369435.3,286046999.2,N
1583369455.2,286046994.8,N
1583369475.0,286046999.8,N
1583369475.9,286046999.8,N
1583369495.7,286047006.7,N
1583369515.6,286047000.0,N
1583369535.4,286047002.0,N
1583369555.3,286046996.8,N
1583369575.1,286047000.1,N
1583369576.0,286047000.1,N
1583369595.8,286046999.9,N
1583369615.7,286046996.2,N
1583369635.5,286046992.7,N
1583369655.3,286046989.4,N
1583369675.2,286046993.4,N
1583369695.0,286046990.4,N
1583369695.9,286046990.4,N
1583369715.8,286046985.0,N
1583369735.6,286046975.8,Y
1583369755.4,286046978.5,P
1583369775.3,286046973.7,N
1583369795.1,286046969.0,N
1583369815.9,286046975.6,N
1583369835.7,286046976.6,N
1583369855.5,286046968.1,Y
1583369875.4,286046992.1,P
1583369895.2,286046993.0,N
1583369915.0,286046993.0,N
1583369916.0,286046993.0,N
1583369935.8,286046993.6,N
1583369955.6,286046998.7,N
1583369975.5,286047007.6,N
1583369995.3,286047008.4,N
